Home > Weather > Dawson City > Past weeks

Flag for Canada Weather for the Past 2 Weeks in Dawson City, Yukon, Canada

Now
47 °F

Overcast.


Feels Like: 43 °F
Forecast: 30 / 57 °F
Wind: 7 mph from South

Location: Northway Airport

Current Time: May 3, 2016 at 10:18:39 PM

Latest Report: May 3, 2016 at 8:53 PM


Visibility: 10 mi

Pressure: 29.79 "Hg

Humidity: 44%

Dew Point: 26 °F

Location of Dawson CityLocation

Historic Weather in Dawson City — Graph

°F

Dawson City Temperature Yesterday

Maximum temperature yesterday: 52 °F (at 2:53 PM)
Minimum temperature yesterday: 37 °F (at 4:53 AM)
Average temperature yesterday: 45 °F

High & Low Weather Summary for the Past Weeks

 TemperatureHumidityPressure
High61 °F (Apr 23, 7:53 PM)97% (Apr 25, 6:53 AM)30.17 "Hg (Apr 25, 6:53 AM)
Low23 °F (Apr 19, 6:53 AM)16% (May 1, 4:53 PM)29.50 "Hg (May 2, 10:53 AM)
Average43 °F57%29.77 "Hg
* Reported Apr 18 8:53 PM — May 3 8:53 PM, Dawson City, Weather by CustomWeather, © 2016

Note: Actual official high and low records may vary slightly from our data, if they occured in-between our weather recording intervals... More about our weather records

Advertising

Dawson City Weather History for the Previous 24 Hours

Scroll right to see more
 ConditionsComfort  
Time TempWeatherWind HumidityBarometerVisibility
8:53 PM
Tue, May 3
47 °FOvercast.7 mph44%29.79 "Hg10 mi
7:53 PM48 °FMore clouds than sun.8 mph34%29.80 "Hg10 mi
6:53 PM49 °FBroken clouds.9 mph36%29.81 "Hg10 mi
5:53 PM49 °FBroken clouds.8 mph36%29.81 "Hg10 mi
4:53 PM52 °FBroken clouds.N/A27%29.80 "Hg10 mi
3:53 PM54 °FBroken clouds.15 mph26%29.80 "Hg10 mi
2:53 PM54 °FBroken clouds.7 mph26%29.80 "Hg10 mi
1:53 PM52 °FBroken clouds.14 mph28%29.80 "Hg10 mi
12:53 PM50 °FBroken clouds.9 mph30%29.80 "Hg10 mi
11:53 AM50 °FScattered clouds.13 mph30%29.80 "Hg10 mi
10:53 AM48 °FScattered clouds.17 mph34%29.80 "Hg10 mi
9:53 AM46 °FScattered clouds.10 mph35%29.79 "Hg10 mi
8:53 AM45 °FSunny.12 mph40%29.79 "Hg10 mi
7:53 AM35 °FSunny.No wind67%29.80 "Hg10 mi
6:53 AM31 °FPassing clouds.5 mph76%29.81 "Hg10 mi
5:53 AM30 °FPassing clouds.5 mph72%29.80 "Hg10 mi
4:53 AM32 °FPassing clouds.5 mph66%29.78 "Hg10 mi
3:53 AM33 °FPassing clouds.3 mph56%29.77 "Hg10 mi
2:53 AM31 °FPassing clouds.5 mph69%29.76 "Hg10 mi
1:53 AM36 °FPartly cloudy.6 mph57%29.74 "Hg10 mi
12:53 AM41 °FPartly cloudy.7 mph41%29.72 "Hg10 mi
11:53 PM
Mon, May 2
41 °FPartly cloudy.5 mph45%29.72 "Hg10 mi
10:53 PM41 °FBroken clouds.6 mph51%29.70 "Hg10 mi
Weather by CustomWeather, © 2016

See weather overviewHow to use our weather pages